Location: San Pelegr�n
(42.1868°N, 0.0079°E)
Time: 14:57:37
(UTC+00:00)

USA 238 DEB - Pass Details

Date: 24 January 2020
Orbit: 1021 x 1191 km, 63.4° (Epoch: 20 February)

Event Time Altitude Azimuth Distance (km) Brightness Sun altitude
Rises 19:20:37 0° 196° (SSW) 3,751 6.8 -25.3°
Reaches altitude 10° 19:23:15 10° 191° (S) 2,811 6.0 -25.8°
Enters shadow 19:28:44 48° 142° (SE) 1,333 3.9 -26.8°
